When you browse on this site, cookies collect data to enhance your experience and personalize the content and advertising you see.
Visit our Privacy Policy to learn more. By continuing to use the site, you agree to this use of cookies and data.
  • In Deutschland
  • Länderverzeichnis
  • Für 7 Tage
  • Wassertemperatur
  • Wetterkarte
  • Widgets
  • user-avatar
    Anmelden

    Stündliche Wetter Kipungo

    Heute, 23 August, Freitag

    Zeit Temperatur Niederschläge Wind Luftdruck Luftfeuchtigkeit
    00:00 +16°C° 0 mm 2 m/S 655 mmHg 33%
    01:00 +14°C° 0 mm 1 m/S 655 mmHg 36%
    02:00 +14°C° 0 mm 1 m/S 654 mmHg 40%
    03:00 +13°C° 0 mm 1 m/S 654 mmHg 44%
    04:00 +12°C° 0 mm 1 m/S 653 mmHg 47%
    05:00 +13°C° 0 mm 1 m/S 654 mmHg 46%
    06:00 +12°C° 0 mm 0 m/S 655 mmHg 45%
    07:00 +14°C° 0 mm 1 m/S 656 mmHg 43%
    08:00 +18°C° 0 mm 2 m/S 657 mmHg 36%
    09:00 +22°C° 0 mm 3 m/S 657 mmHg 30%
    10:00 +26°C° 0 mm 4 m/S 658 mmHg 23%
    11:00 +28°C° 0 mm 4 m/S 658 mmHg 20%
    12:00 +30°C° 0 mm 3 m/S 657 mmHg 18%
    13:00 +31°C° 0 mm 3 m/S 657 mmHg 15%
    14:00 +31°C° 0 mm 3 m/S 657 mmHg 15%
    15:00 +31°C° 0 mm 3 m/S 656 mmHg 15%
    16:00 +31°C° 0 mm 3 m/S 655 mmHg 14%
    17:00 +28°C° 0 mm 3 m/S 655 mmHg 18%
    18:00 +25°C° 0 mm 2 m/S 655 mmHg 21%
    19:00 +21°C° 0 mm 2 m/S 655 mmHg 25%
    20:00 +20°C° 0 mm 2 m/S 655 mmHg 26%
    21:00 +18°C° 0 mm 2 m/S 656 mmHg 26%
    22:00 +17°C° 0 mm 2 m/S 656 mmHg 27%
    23:00 +16°C° 0 mm 2 m/S 655 mmHg 27%

    Morgen, 24 August, Samstag

    Zeit Temperatur Niederschläge Wind Luftdruck Luftfeuchtigkeit
    00:00 +15°C° 0 mm 2 m/S 655 mmHg 27%
    01:00 +14°C° 0 mm 2 m/S 655 mmHg 27%
    02:00 +13°C° 0 mm 1 m/S 654 mmHg 30%
    03:00 +12°C° 0 mm 1 m/S 654 mmHg 32%
    04:00 +12°C° 0 mm 1 m/S 653 mmHg 34%
    05:00 +12°C° 0 mm 1 m/S 654 mmHg 35%
    06:00 +12°C° 0 mm 1 m/S 655 mmHg 36%
    07:00 +13°C° 0 mm 1 m/S 655 mmHg 37%
    08:00 +17°C° 0 mm 2 m/S 656 mmHg 29%
    09:00 +21°C° 0 mm 3 m/S 657 mmHg 22%
    10:00 +26°C° 0 mm 4 m/S 658 mmHg 15%
    11:00 +28°C° 0 mm 4 m/S 658 mmHg 13%
    12:00 +30°C° 0 mm 3 m/S 657 mmHg 11%
    13:00 +33°C° 0 mm 3 m/S 657 mmHg 9%
    14:00 +33°C° 0 mm 3 m/S 656 mmHg 9%
    15:00 +33°C° 0 mm 3 m/S 656 mmHg 8%
    16:00 +33°C° 0 mm 3 m/S 655 mmHg 8%
    17:00 +28°C° 0 mm 3 m/S 655 mmHg 10%
    18:00 +25°C° 0 mm 2 m/S 655 mmHg 12%
    19:00 +21°C° 0 mm 2 m/S 655 mmHg 14%
    20:00 +20°C° 0 mm 2 m/S 655 mmHg 15%
    21:00 +18°C° 0 mm 2 m/S 655 mmHg 16%
    22:00 +17°C° 0 mm 2 m/S 655 mmHg 17%
    23:00 +16°C° 0 mm 2 m/S 654 mmHg 19%

    übermorgen, 25 August, Sonntag

    Zeit Temperatur Niederschläge Wind Luftdruck Luftfeuchtigkeit
    00:00 +14°C° 0 mm 1 m/S 654 mmHg 20%
    01:00 +13°C° 0 mm 1 m/S 653 mmHg 22%
    02:00 +12°C° 0 mm 1 m/S 653 mmHg 23%
    03:00 +11°C° 0 mm 1 m/S 653 mmHg 25%
    04:00 +11°C° 0 mm 1 m/S 652 mmHg 26%
    05:00 +11°C° 0 mm 1 m/S 653 mmHg 25%
    06:00 +12°C° 0 mm 1 m/S 654 mmHg 25%
    07:00 +12°C° 0 mm 0 m/S 655 mmHg 24%
    08:00 +17°C° 0 mm 2 m/S 655 mmHg 20%
    09:00 +21°C° 0 mm 3 m/S 656 mmHg 15%
    10:00 +27°C° 0 mm 4 m/S 657 mmHg 11%
    11:00 +29°C° 0 mm 3 m/S 657 mmHg 10%
    12:00 +31°C° 0 mm 2 m/S 656 mmHg 8%
    13:00 +35°C° 0 mm 2 m/S 656 mmHg 7%
    14:00 +34°C° 0 mm 1 m/S 656 mmHg 7%
    15:00 +34°C° 0 mm 1 m/S 655 mmHg 6%
    16:00 +34°C° 0 mm 1 m/S 654 mmHg 6%
    17:00 +30°C° 0 mm 1 m/S 654 mmHg 8%
    18:00 +26°C° 0 mm 1 m/S 654 mmHg 10%
    19:00 +22°C° 0 mm 1 m/S 653 mmHg 12%
    20:00 +21°C° 0 mm 1 m/S 654 mmHg 14%
    21:00 +18°C° 0 mm 2 m/S 654 mmHg 17%
    22:00 +17°C° 0 mm 2 m/S 654 mmHg 19%
    23:00 +16°C° 0 mm 2 m/S 654 mmHg 28%

    26 August, Montag

    Zeit Temperatur Niederschläge Wind Luftdruck Luftfeuchtigkeit
    00:00 +15°C° 0 mm 2 m/S 654 mmHg 36%
    01:00 +14°C° 0 mm 2 m/S 653 mmHg 45%
    02:00 +13°C° 0 mm 2 m/S 653 mmHg 45%
    03:00 +13°C° 0 mm 1 m/S 653 mmHg 46%
    04:00 +12°C° 0 mm 1 m/S 653 mmHg 47%
    05:00 +13°C° 0 mm 1 m/S 653 mmHg 41%
    06:00 +13°C° 0 mm 1 m/S 654 mmHg 36%
    07:00 +14°C° 0 mm 1 m/S 655 mmHg 31%
    08:00 +18°C° 0 mm 2 m/S 656 mmHg 24%
    09:00 +24°C° 0 mm 2 m/S 656 mmHg 17%
    10:00 +29°C° 0 mm 3 m/S 657 mmHg 10%
    11:00 +31°C° 0 mm 3 m/S 657 mmHg 9%
    12:00 +34°C° 0 mm 2 m/S 657 mmHg 8%
    13:00 +36°C° 0 mm 2 m/S 656 mmHg 7%
    14:00 +35°C° 0 mm 1 m/S 656 mmHg 7%
    15:00 +35°C° 0 mm 1 m/S 655 mmHg 7%
    16:00 +33°C° 0 mm 0 m/S 655 mmHg 7%
    17:00 +32°C° 0 mm 1 m/S 655 mmHg 9%
    18:00 +28°C° 0 mm 1 m/S 655 mmHg 12%
    19:00 +24°C° 0 mm 2 m/S 654 mmHg 14%
    20:00 +21°C° 0 mm 2 m/S 655 mmHg 27%
    21:00 +19°C° 0 mm 2 m/S 655 mmHg 39%
    22:00 +17°C° 0 mm 2 m/S 655 mmHg 52%
    23:00 +16°C° 0 mm 2 m/S 655 mmHg 55%

    27 August, Dienstag

    Zeit Temperatur Niederschläge Wind Luftdruck Luftfeuchtigkeit
    00:00 +15°C° 0 mm 2 m/S 654 mmHg 58%
    01:00 +14°C° 0 mm 2 m/S 654 mmHg 61%
    02:00 +14°C° 0 mm 1 m/S 654 mmHg 62%
    03:00 +13°C° 0 mm 1 m/S 654 mmHg 62%
    04:00 +13°C° 0 mm 1 m/S 654 mmHg 62%
    05:00 +13°C° 0 mm 1 m/S 654 mmHg 56%
    06:00 +14°C° 0 mm 1 m/S 655 mmHg 50%
    07:00 +14°C° 0 mm 1 m/S 655 mmHg 43%
    08:00 +19°C° 0 mm 2 m/S 656 mmHg 32%
    09:00 +24°C° 0 mm 2 m/S 657 mmHg 21%
    10:00 +29°C° 0 mm 3 m/S 658 mmHg 10%
    11:00 +31°C° 0 mm 3 m/S 657 mmHg 9%
    12:00 +34°C° 0 mm 3 m/S 657 mmHg 8%
    13:00 +35°C° 0 mm 3 m/S 656 mmHg 6%
    14:00 +36°C° 0 mm 2 m/S 656 mmHg 6%
    15:00 +36°C° 0 mm 2 m/S 655 mmHg 6%
    16:00 +35°C° 0 mm 1 m/S 655 mmHg 6%
    17:00 +31°C° 0 mm 1 m/S 655 mmHg 8%
    18:00 +27°C° 0 mm 1 m/S 654 mmHg 10%
    19:00 +24°C° 0 mm 1 m/S 654 mmHg 12%
    20:00 +22°C° 0 mm 1 m/S 654 mmHg 20%
    21:00 +19°C° 0 mm 2 m/S 654 mmHg 28%
    22:00 +17°C° 0 mm 2 m/S 654 mmHg 36%
    23:00 +16°C° 0 mm 2 m/S 654 mmHg 43%

    28 August, Mittwoch

    Zeit Temperatur Niederschläge Wind Luftdruck Luftfeuchtigkeit
    00:00 +15°C° 0 mm 2 m/S 653 mmHg 50%
    01:00 +14°C° 0 mm 1 m/S 653 mmHg 57%
    02:00 +14°C° 0 mm 1 m/S 653 mmHg 58%
    03:00 +13°C° 0 mm 1 m/S 653 mmHg 58%
    04:00 +13°C° 0 mm 1 m/S 653 mmHg 58%
    05:00 +14°C° 0 mm 1 m/S 653 mmHg 54%
    06:00 +14°C° 0 mm 1 m/S 654 mmHg 49%
    07:00 +15°C° 0 mm 1 m/S 654 mmHg 44%
    08:00 +21°C° 0 mm 1 m/S 655 mmHg 33%
    09:00 +26°C° 0 mm 2 m/S 656 mmHg 21%
    10:00 +30°C° 0 mm 2 m/S 657 mmHg 10%
    11:00 +32°C° 0 mm 2 m/S 657 mmHg 9%
    12:00 +35°C° 0 mm 2 m/S 656 mmHg 8%
    13:00 +37°C° 0 mm 2 m/S 656 mmHg 7%
    14:00 +36°C° 0 mm 1 m/S 655 mmHg 8%
    15:00 +36°C° 0 mm 1 m/S 655 mmHg 8%
    16:00 +34°C° 0 mm 0 m/S 654 mmHg 8%
    17:00 +32°C° 0 mm 1 m/S 654 mmHg 11%
    18:00 +29°C° 0 mm 1 m/S 654 mmHg 14%
    19:00 +25°C° 0 mm 1 m/S 653 mmHg 17%
    20:00 +23°C° 0 mm 2 m/S 653 mmHg 26%
    21:00 +20°C° 0 mm 2 m/S 653 mmHg 34%
    22:00 +19°C° 0 mm 3 m/S 653 mmHg 43%
    23:00 +18°C° 0 mm 2 m/S 653 mmHg 43%
    Mehr zeigen